Probability
0 0 0 0 0 0 0 0 0 0 0 0 0 0 0 0 0 0 0 0 0 0 0 0 0 0 0 0 0 0 0 0 0 0 0 0 0 0 3 3 3 3 0
0 0 0 0 0 0 0 0 0 0 0 0 0 0 0 0 0 0 0 0 0 0 0 0 0 0 0 0 0 0 0 0 0 0 0 0 0 0 0 3 3 3 0
0 0 0 0 0 0 0 0 0 0 0 0 0 0 0 0 0 0 0 0 0 0 0 0 0 0 0 0 0 0 0 0 0 0 0 0 0 3 3 3 3 0 0
0 0 0 0 0 0 0 0 0 0 0 0 0 0 0 0 0 0 0 0 0 0 0 0 0 0 0 0 0 0 0 0 0 0 0 0 0 0 3 0 0 0 0
0 0 0 0 0 0 0 0 0 0 0 0 0 0 0 0 0 0 0 0 0 0 0 0 0 0 0 0 0 0 0 3 0 0 0 0 0 0 0 0 0 0 0
0 0 0 0 0 0 0 0 0 0 0 0 0 0 0 0 0 0 0 0 0 0 0 0 0 0 0 0 0 0 0 0 0 0 0 0 0 0 0 0 0 0 0
0 0 0 0 0 0 0 0 0 0 0 0 0 0 0 0 0 0 0 0 0 0 0 0 0 0 0 0 0 0 0 0 0 0 0 0 0 0 0 0 0 0 0
0 0 0 0 0 0 0 0 0 0 0 0 0 0 0 0 0 0 0 0 0 0 0 0 0 0 0 0 0 0 0 0 0 0 0 0 0 0 0 0 0 0 0
0 0 0 0 0 0 0 0 0 0 0 0 0 0 0 0 0 0 0 0 0 0 0 0 0 0 0 0 0 0 0 0 0 0 0 0 0 0 0 0 0 0 0
0 0 0 0 0 0 0 0 0 0 0 0 0 0 0 0 0 0 0 0 0 0 0 0 0 0 0 0 0 0 0 0 0 0 0 0 0 0 0 0 0 0 0
0 0 0 0 0 0 0 0 0 0 0 0 0 0 0 0 0 0 0 0 0 0 0 0 0 0 0 0 0 0 0 0 0 0 0 0 0 0 0 0 0 0 0
0 0 0 0 0 0 0 0 0 0 0 0 0 0 0 0 0 0 0 0 0 0 0 0 0 0 0 0 0 0 0 0 0 0 0 0 0 0 0 0 0 0 0
0 0 0 0 0 0 0 0 0 0 0 0 0 0 0 0 0 0 0 0 0 0 0 0 0 0 0 0 0 0 0 0 0 0 0 0 0 0 0 0 0 3 3
0 0 0 0 0 0 0 0 0 0 0 0 0 0 0 0 0 0 0 0 0 0 0 0 0 0 0 0 0 0 0 0 0 0 0 0 0 0 0 0 0 0 0
0 0 0 0 0 0 0 0 0 0 0 0 0 0 0 0 0 0 0 0 0 0 0 0 0 0 0 0 0 0 0 0 0 0 0 0 0 0 0 0 0 0 0
0 0 0 0 0 0 0 0 0 0 0 0 0 0 0 0 0 0 0 0 0 0 0 0 0 0 0 0 0 0 0 0 0 0 0 0 0 0 0 0 0 0 0
0 0 0 0 0 0 0 0 0 0 0 0 0 0 0 0 0 0 0 0 0 0 0 0 0 0 0 0 0 0 0 0 0 0 0 0 0 0 0 0 0 0 0
0 0 0 0 0 0 0 0 0 0 0 0 0 0 0 0 0 0 0 0 0 0 0 0 0 0 0 0 0 0 0 0 0 0 0 0 0 0 0 0 0 0 0
0 0 0 0 0 0 0 0 0 0 0 0 0 0 0 0 0 0 0 0 0 0 0 0 0 0 0 0 0 0 0 0 0 0 0 0 0 0 0 0 0 0 0
0 0 0 0 0 0 0 0 0 0 0 0 0 0 0 0 0 0 0 0 0 0 0 0 0 0 0 0 0 0 0 0 0 0 0 0 0 0 0 0 0 0 0
0 0 0 0 0 0 0 0 0 0 0 0 0 0 0 0 0 0 0 0 0 0 0 0 0 0 0 0 0 0 0 0 0 0 0 0 0 0 0 0 0 0 0
0 0 0 0 0 0 0 0 0 0 0 0 0 0 0 0 0 0 0 0 0 0 0 0 0 0 0 0 0 0 0 0 0 0 0 0 0 0 0 0 0 0 0
0 0 0 0 0 0 0 0 0 0 0 0 0 0 0 0 0 0 0 0 0 0 0 0 0 0 0 0 0 0 0 0 0 0 0 0 0 0 0 0 0 0 0
0 0 0 0 0 0 0 0 0 0 0 0 0 0 0 0 0 0 0 0 0 0 0 0 0 0 0 0 0 0 0 0 0 0 0 0 0 0 0 0 0 0 0
0 0 0 0 0 0 0 0 0 0 0 0 0 0 0 0 0 0 0 0 0 0 0 0 0 0 0 0 0 0 0 0 0 0 0 0 0 0 0 0 0 0 0
0 0 0 0 0 0 0 0 0 0 0 0 0 0 0 0 0 0 0 0 0 0 0 0 0 0 0 0 0 0 0 0 0 0 0 0 0 0 0 0 0 0 0
Height
5829 5830 5831 5831 5832 5832 5831 5831 5831 5830 5829 5829 5827 5826 5825 5823 5822 5820 5818 5816 5813 5810 5808 5805 5802 5799 5796 5793 5790 5787 5784 5781 5778 5775 5772 5769 5766 5763 5761 5759 5758 5757 5756
5823 5824 5825 5826 5826 5826 5826 5825 5825 5824 5824 5823 5822 5820 5819 5817 5815 5813 5811 5809 5807 5804 5801 5798 5795 5792 5789 5786 5783 5780 5777 5774 5771 5767 5764 5761 5758 5756 5754 5752 5750 5749 5748
5816 5818 5819 5819 5820 5819 5819 5819 5819 5818 5818 5817 5815 5814 5812 5811 5809 5807 5805 5803 5800 5797 5795 5792 5789 5786 5783 5780 5776 5773 5770 5767 5764 5760 5757 5754 5751 5748 5746 5744 5742 5741 5740
5810 5811 5812 5813 5813 5812 5812 5813 5812 5812 5811 5810 5809 5807 5806 5804 5802 5800 5798 5796 5793 5790 5788 5785 5782 5779 5776 5773 5769 5766 5763 5760 5756 5753 5750 5746 5743 5741 5739 5737 5735 5734 5733
5803 5804 5805 5805 5806 5806 5806 5806 5805 5805 5804 5803 5802 5800 5798 5797 5795 5793 5791 5789 5786 5783 5781 5778 5775 5772 5769 5766 5762 5759 5756 5752 5748 5745 5742 5739 5736 5733 5731 5729 5727 5726 5725
5795 5796 5797 5798 5798 5798 5798 5798 5798 5797 5797 5796 5794 5793 5791 5790 5788 5786 5784 5781 5779 5776 5774 5771 5768 5765 5762 5758 5755 5751 5748 5744 5741 5738 5734 5731 5728 5725 5723 5721 5719 5718 5717
5788 5789 5790 5790 5790 5790 5791 5790 5790 5789 5789 5788 5787 5786 5784 5783 5781 5778 5776 5774 5771 5769 5766 5763 5760 5757 5754 5751 5747 5743 5740 5736 5733 5730 5727 5724 5721 5718 5716 5713 5712 5710 5709
5780 5781 5782 5783 5783 5783 5782 5782 5782 5782 5781 5781 5780 5779 5778 5776 5773 5771 5769 5766 5764 5761 5758 5755 5752 5749 5746 5743 5739 5736 5732 5729 5725 5722 5719 5716 5713 5711 5708 5706 5704 5702 5700
5771 5772 5773 5774 5774 5774 5774 5774 5774 5774 5774 5773 5772 5771 5770 5769 5767 5765 5762 5759 5756 5753 5750 5747 5744 5741 5738 5735 5731 5728 5725 5721 5718 5715 5711 5708 5706 5703 5700 5698 5696 5694 5692
5763 5764 5765 5766 5766 5766 5766 5766 5766 5766 5765 5765 5764 5763 5762 5760 5759 5758 5756 5752 5749 5746 5743 5740 5736 5733 5730 5726 5723 5720 5717 5714 5711 5707 5704 5701 5698 5695 5692 5690 5687 5685 5683
5755 5755 5756 5757 5758 5758 5758 5758 5758 5758 5757 5757 5756 5755 5754 5753 5751 5750 5749 5746 5742 5739 5736 5732 5729 5725 5722 5718 5715 5712 5709 5706 5703 5699 5696 5693 5690 5687 5684 5681 5679 5676 5674
5746 5748 5749 5749 5750 5750 5750 5750 5750 5750 5749 5749 5748 5747 5746 5746 5744 5742 5741 5738 5735 5732 5728 5725 5721 5718 5714 5711 5707 5704 5701 5698 5695 5691 5688 5684 5682 5679 5676 5673 5670 5667 5665
5737 5739 5740 5741 5741 5741 5741 5741 5742 5741 5741 5741 5740 5739 5738 5737 5736 5734 5733 5731 5728 5725 5721 5717 5713 5710 5706 5703 5699 5696 5693 5689 5686 5683 5680 5676 5673 5670 5667 5664 5661 5658 5656
5728 5730 5731 5732 5732 5733 5733 5733 5733 5733 5733 5732 5732 5731 5730 5729 5727 5726 5724 5722 5721 5718 5714 5710 5706 5702 5698 5694 5691 5687 5684 5681 5678 5675 5672 5668 5665 5662 5659 5655 5652 5650 5648
5718 5720 5722 5723 5723 5724 5725 5725 5725 5725 5725 5725 5724 5723 5722 5721 5719 5718 5716 5714 5712 5710 5707 5702 5698 5694 5690 5686 5683 5679 5675 5672 5669 5666 5663 5660 5657 5654 5651 5647 5644 5641 5639
5709 5711 5712 5713 5715 5715 5716 5717 5717 5717 5717 5716 5716 5715 5714 5713 5711 5710 5707 5705 5703 5700 5697 5694 5690 5686 5682 5678 5674 5671 5667 5664 5661 5658 5655 5652 5649 5646 5642 5639 5636 5633 5631
5700 5701 5703 5704 5705 5706 5707 5708 5708 5708 5708 5708 5708 5707 5706 5705 5704 5702 5700 5697 5695 5692 5689 5687 5683 5679 5675 5671 5667 5663 5659 5656 5653 5650 5647 5644 5641 5638 5634 5631 5628 5625 5623
5690 5692 5693 5695 5696 5697 5698 5699 5699 5700 5700 5700 5699 5699 5698 5697 5695 5694 5692 5690 5687 5684 5682 5679 5676 5672 5668 5664 5660 5656 5653 5649 5646 5643 5640 5637 5633 5630 5627 5624 5621 5618 5616
5680 5682 5683 5685 5686 5687 5688 5689 5690 5690 5690 5690 5690 5690 5689 5688 5687 5685 5684 5682 5679 5677 5674 5671 5669 5665 5661 5657 5654 5650 5646 5643 5639 5636 5633 5630 5626 5623 5620 5617 5614 5611 5608
5670 5672 5673 5674 5676 5677 5678 5679 5680 5681 5681 5681 5681 5681 5680 5679 5678 5677 5676 5674 5671 5669 5667 5664 5661 5658 5654 5650 5647 5644 5640 5637 5634 5630 5627 5623 5620 5616 5613 5610 5607 5604 5601
5660 5661 5663 5664 5665 5667 5668 5669 5670 5671 5671 5672 5672 5672 5671 5670 5669 5668 5667 5665 5663 5661 5659 5657 5654 5651 5647 5644 5640 5637 5634 5631 5628 5625 5621 5617 5614 5610 5607 5604 5601 5598 5595
5649 5651 5652 5653 5655 5656 5657 5658 5659 5660 5661 5662 5662 5662 5662 5662 5661 5660 5658 5657 5655 5653 5651 5649 5646 5643 5640 5637 5633 5630 5627 5624 5622 5619 5616 5612 5608 5605 5601 5598 5595 5592 5589
5639 5641 5642 5643 5644 5645 5646 5648 5649 5650 5651 5652 5652 5653 5653 5653 5652 5651 5650 5648 5647 5645 5643 5641 5639 5636 5633 5630 5626 5623 5620 5617 5614 5611 5609 5606 5602 5599 5595 5592 5589 5586 5582
5629 5630 5631 5633 5634 5635 5636 5637 5638 5639 5640 5641 5642 5643 5643 5643 5643 5642 5641 5640 5639 5637 5636 5634 5631 5629 5625 5622 5619 5616 5613 5610 5607 5605 5602 5600 5597 5593 5590 5586 5583 5579 5576
5618 5619 5620 5622 5623 5624 5625 5626 5627 5628 5630 5631 5632 5633 5633 5634 5634 5634 5633 5632 5631 5629 5627 5625 5623 5621 5617 5614 5612 5609 5606 5603 5601 5599 5596 5594 5591 5588 5585 5581 5577 5573 5570
5607 5608 5609 5611 5612 5613 5614 5615 5616 5618 5620 5621 5622 5623 5624 5624 5624 5624 5624 5624 5623 5622 5620 5618 5616 5613 5610 5607 5605 5602 5600 5597 5595 5593 5591 5588 5585 5582 5580 5576 5572 5568 5564
Wind_Speed
27 26 25 25 25 25 26 26 26 26 26 26 27 27 27 28 28 29 30 31 32 32 32 33 33 33 33 32 32 32 32 32 32 33 32 32 32 32 32 32 32 31 31
28 28 27 27 27 27 27 27 27 27 27 27 28 28 29 29 30 30 31 32 33 33 33 33 33 33 32 32 32 33 33 33 32 32 33 32 32 32 32 32 32 31 31
29 29 29 29 29 29 29 29 28 29 29 29 29 30 30 31 31 32 32 33 33 33 33 33 33 33 32 32 33 33 33 33 33 33 33 33 33 32 32 32 31 31 31
31 31 30 30 30 30 30 30 30 30 30 30 31 31 32 32 32 32 33 33 33 33 33 33 33 32 32 33 33 33 34 34 34 34 34 33 33 32 32 31 31 31 30
32 32 32 32 32 32 31 31 32 32 31 31 32 32 32 32 33 33 33 33 33 33 33 33 33 33 33 33 33 33 34 34 34 34 34 33 33 33 32 31 31 30 30
33 32 33 33 33 33 33 32 33 33 33 33 32 32 32 32 32 33 33 33 34 34 34 33 34 34 34 34 33 34 34 34 34 34 34 33 33 33 32 31 30 31 30
34 34 34 33 33 33 33 33 33 33 33 33 32 32 33 33 33 34 34 34 35 35 34 34 34 34 34 34 34 34 34 34 34 34 34 33 33 32 31 31 30 31 31
35 35 35 36 36 36 35 35 35 34 34 34 34 33 33 33 33 34 34 35 35 35 35 35 35 34 34 34 34 34 33 33 33 34 34 33 33 33 32 31 31 31 31
36 36 36 35 36 37 36 35 35 35 35 34 34 34 34 34 33 34 34 34 34 34 35 35 34 35 35 35 34 33 33 33 33 34 34 33 33 32 32 31 32 32 32
37 36 37 36 36 36 36 35 34 35 34 34 35 35 35 34 33 32 32 33 33 34 34 34 34 34 35 34 34 34 33 33 33 33 33 33 33 32 32 32 32 32 33
38 36 36 36 36 35 35 35 34 33 33 33 33 33 32 33 33 32 31 31 32 34 34 33 34 34 34 34 34 34 34 34 33 33 33 33 32 32 32 32 32 33 33
39 38 38 37 35 34 34 35 34 34 34 33 33 33 33 32 32 32 32 32 33 34 34 34 34 35 34 34 34 34 34 34 34 33 33 32 32 33 33 33 33 33 32
39 39 39 37 35 34 33 33 33 33 34 33 33 33 33 34 34 33 33 33 34 34 34 34 35 35 35 34 34 34 34 34 33 33 33 32 32 33 33 34 33 32 31
40 39 38 38 38 36 34 34 34 34 34 33 34 34 33 33 34 35 35 35 34 34 34 35 35 35 35 34 34 34 33 33 33 33 33 32 32 33 34 34 33 32 32
40 40 39 38 38 37 37 36 36 35 35 35 34 34 33 33 34 34 35 35 35 34 34 35 35 34 34 34 34 33 33 33 33 33 33 33 33 33 34 33 33 32 31
41 40 40 38 39 37 36 35 35 35 34 34 34 34 33 33 34 34 34 35 35 35 33 33 34 33 34 34 33 33 33 33 33 33 33 33 33 34 34 33 33 31 31
41 40 40 40 39 38 37 36 35 35 35 34 34 34 34 34 34 34 34 34 34 33 32 32 33 32 33 33 33 33 33 33 32 32 33 33 33 33 32 32 31 31 30
41 41 41 41 41 40 39 37 36 35 35 35 35 34 33 33 33 33 33 33 33 32 32 31 31 32 33 33 33 33 33 33 32 32 32 32 32 32 31 30 30 30 30
41 41 41 41 41 40 39 38 37 37 37 36 36 35 34 34 33 33 33 33 32 32 31 31 31 32 32 33 32 32 32 32 32 31 31 31 30 30 30 30 29 29 29
42 41 41 40 40 40 39 38 39 39 38 38 37 36 35 34 34 34 33 32 31 31 31 31 32 32 32 32 32 31 31 31 31 31 31 30 30 29 28 28 28 28 29
41 42 41 41 41 41 40 40 39 39 38 38 36 35 34 34 33 33 32 32 32 31 31 31 31 32 32 32 31 31 31 31 31 31 30 30 30 29 28 28 28 28 28
41 41 41 41 41 41 40 40 40 39 38 37 36 35 36 34 32 33 33 33 32 32 31 31 31 32 32 31 31 31 30 30 30 30 30 29 29 28 28 28 28 28 29
41 41 41 41 41 40 40 40 39 38 38 37 37 36 35 35 33 33 33 33 32 32 31 31 31 31 31 31 31 31 31 30 29 29 28 28 28 28 28 28 28 28 28
41 41 41 41 40 40 40 40 39 38 38 37 36 36 35 34 33 32 32 32 32 32 32 32 31 31 31 31 31 31 31 30 29 28 28 28 27 27 27 28 29 28 27
40 40 40 40 39 40 40 40 39 38 38 37 37 35 34 33 33 33 33 33 32 32 32 32 31 31 31 31 31 30 29 28 27 26 27 27 26 25 26 27 28 28 27
39 39 39 40 40 40 41 41 40 39 38 37 37 36 35 35 34 34 34 33 32 32 32 32 31 31 31 30 29 28 27 27 26 26 26 26 25 25 24 26 26 25 25
Wind_Direction
257 260 264 267 271 274 276 279 280 281 283 286 289 291 292 293 294 295 298 300 302 303 304 304 304 305 304 304 304 304 305 304 302 301 301 300 299 297 295 293 290 287 285
257 260 262 266 270 273 275 277 279 281 282 285 288 291 292 292 293 295 297 300 301 302 303 304 304 305 304 304 304 304 304 304 303 303 302 301 299 297 296 294 292 288 286
255 259 262 265 269 272 274 276 278 280 282 284 287 290 292 292 292 294 296 299 300 301 302 303 303 303 304 303 303 303 304 304 304 303 302 300 299 297 296 295 292 288 286
256 259 262 265 268 272 273 275 278 279 281 284 286 289 290 291 293 294 295 297 299 301 302 302 301 302 302 303 303 302 303 303 303 303 302 301 300 298 296 294 292 289 286
256 259 261 265 267 269 272 275 276 278 281 283 285 288 289 290 292 293 294 297 298 300 301 301 301 301 302 302 302 302 303 302 302 302 302 302 300 299 296 293 290 289 286
256 258 261 264 266 269 271 274 276 277 279 282 285 287 289 290 292 293 294 296 298 299 299 300 300 300 301 302 301 301 302 302 302 302 303 303 301 300 297 294 290 289 288
255 258 261 264 266 268 269 272 275 277 279 281 284 286 288 289 292 293 294 296 298 298 298 298 298 298 299 300 302 302 302 302 302 302 302 303 302 300 298 296 293 291 290
256 258 260 264 266 268 269 272 274 277 278 280 281 283 285 289 292 293 294 295 296 297 297 298 297 297 298 300 301 302 302 302 302 303 303 302 302 300 299 298 295 293 292
257 257 260 264 266 267 269 272 274 276 277 279 280 281 283 287 290 292 293 294 296 297 298 298 298 298 298 299 300 300 301 302 302 303 302 301 300 300 298 298 296 294 291
258 260 261 263 266 267 268 270 273 275 276 278 280 281 284 286 289 291 292 293 295 297 299 299 300 299 299 299 300 300 300 301 302 303 302 300 299 299 299 298 297 294 292
257 260 262 265 267 269 269 269 271 274 277 278 278 280 284 287 288 290 293 294 295 298 299 299 300 301 301 301 301 301 300 301 302 303 302 300 298 297 298 297 296 294 292
257 259 261 263 266 267 268 269 271 273 275 277 279 280 283 286 288 288 291 293 295 297 299 299 301 301 301 301 301 300 300 300 301 302 301 299 298 297 297 296 295 294 293
257 260 262 263 265 267 268 270 272 274 275 278 279 281 284 285 288 289 291 293 295 297 298 300 300 301 301 301 300 300 300 300 301 301 301 299 298 298 298 296 294 293 293
257 259 262 263 264 266 267 269 271 273 274 277 279 282 285 287 288 289 291 293 295 296 297 300 301 301 300 300 301 300 300 300 301 301 301 301 301 300 299 298 297 295 293
258 259 260 262 265 266 268 270 270 272 274 277 279 282 284 287 288 289 290 293 295 297 297 299 300 301 301 301 302 302 301 301 301 301 301 301 301 301 302 300 298 294 292
258 259 258 261 263 265 267 269 271 272 275 278 279 281 283 286 288 288 291 293 294 297 298 298 299 300 301 302 302 303 303 302 301 301 302 302 301 301 301 300 299 296 294
257 258 261 262 263 264 266 268 271 274 275 277 279 281 283 285 286 287 290 292 294 296 298 298 298 299 300 302 303 303 305 304 303 302 303 303 303 303 303 301 300 297 295
257 258 260 262 263 264 266 268 269 270 273 276 278 281 283 284 285 286 288 290 292 294 296 298 298 300 301 303 303 303 304 305 304 303 304 305 305 305 304 303 302 299 296
257 259 261 262 263 264 265 266 268 269 272 275 278 279 280 281 282 284 287 289 290 292 295 296 298 301 301 303 303 303 304 304 305 304 305 306 307 307 305 304 303 302 299
258 259 260 260 261 263 264 266 268 269 271 273 275 277 278 279 280 283 285 288 289 291 293 295 298 300 302 302 302 303 303 302 303 304 306 306 306 308 307 306 306 303 301
259 259 260 261 261 262 263 265 267 268 270 272 273 275 276 278 280 281 284 287 288 290 292 294 297 299 301 301 301 301 302 302 302 304 305 305 306 307 307 307 307 306 305
260 260 261 261 262 263 263 265 265 267 270 271 270 271 274 275 278 281 284 286 287 289 291 293 297 299 301 301 302 301 301 303 303 305 306 306 305 306 307 306 306 307 307
261 261 261 261 262 262 263 264 265 267 268 268 268 270 272 273 276 280 283 285 286 289 291 294 296 298 299 300 301 301 301 302 302 303 305 305 305 305 305 307 307 308 307
261 260 260 260 260 261 262 264 265 266 267 267 267 268 270 271 273 276 280 282 284 288 290 292 295 296 298 300 301 302 301 300 300 301 303 305 306 305 305 307 308 308 307
259 260 259 260 261 261 263 264 265 265 265 266 266 267 268 270 272 275 278 281 283 286 288 291 293 295 297 299 300 301 302 302 302 301 302 305 305 305 307 309 311 309 308
259 260 261 261 261 262 263 265 265 264 264 264 265 267 268 270 272 274 277 279 281 283 286 289 291 293 296 298 298 300 302 303 303 301 303 305 306 307 309 312 313 313 312